Regional Weather Roundup
Issued by NWS

Home | Current Version | Previous Version | Text Only | Print | Product List | Glossary Off
Versions: 1 2 3 4 5 6 7 8 9 10 11 12 13 14 15 16 17 18 19 20 21 22 23 24 25 26 27 28 29 30 31 32 33 34 35 36 37 38 39 40 41 42 43 44 45 46 47 48 49 50

000
ASUS45 KBOI 290010
RWRID
WEATHER ROUNDUP FOR IDAHO
NATIONAL WEATHER SERVICE BOISE ID
600 PM MDT SAT MAR 28 2015

NOTE: "FAIR" INDICATES FEW OR NO CLOUDS BELOW 12000 FEET
WITH NO SIGNIFICANT WEATHER AND/OR OBSTRUCTIONS TO VISIBILITY

IDZ012-014-290100-
SOUTHWEST IDAHO


CITY           SKY/WX    TMP DP  RH WIND       PRES   REMARKS
BOISE          SUNNY     59  27  29 NW14G23   30.27R
CALDWELL       SUNNY     63  27  25 NW10      30.28R
MOUNTAIN HOME  PTSUNNY   60  25  26 NW20G26   30.23S
$$

IDZ016-017-290100-
SOUTHCENTRAL IDAHO


CITY           SKY/WX    TMP DP  RH WIND       PRES   REMARKS
BURLEY         LGT RAIN  56  22  26 W26G36    30.19F
JEROME         SUNNY     55  20  25 W32G38    30.22R
TWIN FALLS     SUNNY     58  23  26 W22G30    30.24R
$$

IDZ019>023-290100-
SOUTHEAST IDAHO


CITY           SKY/WX    TMP DP  RH WIND       PRES   REMARKS
IDAHO FALLS    SUNNY     60  26  27 SW24G33   30.10R
POCATELLO      SUNNY     57  20  23 SW22G33   30.16R
REXBURG        SUNNY     59  25  27 SW28G40   30.04R
$$

IDZ006-010-011-018-031-032-290100-
CENTRAL IDAHO MOUNTAINS


CITY           SKY/WX    TMP DP  RH WIND       PRES   REMARKS
MCCALL         MOSUNNY   47  24  40 W9        30.26R
HAILEY         MOSUNNY   61  12  15 N8        30.12R
STANLEY          N/A     47  23  38 W9        30.22F
SALMON         MOSUNNY  N/A N/A N/A N14G22    30.14R
CHALLIS        MOSUNNY   55  14  19 NW12      30.15R
$$

IDZ002-004-006-007-026-290100-
NORTHERN IDAHO


CITY           SKY/WX    TMP DP  RH WIND       PRES   REMARKS
LEWISTON       MOSUNNY   59  34  39 NW15G23   30.27R
LOWELL           N/A     53  45  74 N5        30.28R
COEUR D`ALENE  PTSUNNY   54  34  47 SW26G33   30.20R
MULLAN PASS    CLOUDY    32  31  96 W8        30.19R WCI  25
$$


USA.gov is the U.S. government's official web portal to all federal, state and local government web resources and services.